Date String (YYYY-MM-DD hh:mm:ss) UTC,Instrument flags,Ambient pressure (hPa),Sample flow (lpm),Bypass flow (lpm),Sample temperature (°C),Ambient temperature (°C),ASC tube jacket temperature (°C),LED temperature (°C),Box temperature (°C),Sample RH (%),Span deviation,Mass concentration (μg/m³),Mass concentration (μg/m³),Mass concentration (μg/m³)
DateTimeUTC,F1_M11,P_M11,Q1_M11,Q2_M11,T1_M11,T2_M11,T3_M11,T4_M11,T5_M11,U1_M11,ZSPAN_M11,X0_M11,X2_M11,X1_M11
2022-12-15 15:00:00,,0820.7,4.98,0.00,22.4,21.2,00.0,31.2,24.2,07.7,0000.0,0016.82,0004.54,0003.40
2022-12-15 15:01:00,,0820.7,5.04,0.00,22.4,21.0,00.0,31.3,24.2,07.7,0000.0,0015.85,0004.59,0003.40
2022-12-15 15:02:00,,0820.7,4.95,0.00,22.4,20.9,00.0,31.3,24.1,07.9,0000.0,0015.70,0004.63,0003.41
2022-12-15 15:03:00,,0820.7,5.05,0.00,22.3,20.8,00.0,31.2,24.1,07.8,0000.0,0013.92,0004.65,0003.42
2022-12-15 15:04:00,,0820.7,4.95,0.00,22.3,20.8,00.0,31.2,24.1,07.7,0000.0,0013.28,0004.65,0003.43
2022-12-15 15:05:00,,0820.7,5.02,0.00,22.3,20.7,00.0,31.2,24.1,07.7,0000.0,0013.04,0004.66,0003.44
2022-12-15 15:06:00,,0820.7,4.97,0.00,22.3,20.7,00.0,31.2,24.1,07.7,0000.0,0014.44,0004.69,0003.44
2022-12-15 15:07:00,,0820.8,5.00,0.00,22.3,20.7,00.0,31.2,24.0,07.6,0000.0,0015.74,0004.72,0003.45
2022-12-15 15:08:00,,0820.8,5.03,0.00,22.3,20.7,00.0,31.2,24.0,07.7,0000.0,0015.52,0004.71,0003.45
2022-12-15 15:09:00,,0820.8,4.98,0.00,22.2,20.7,00.0,31.2,24.0,07.7,0000.0,0014.54,0004.71,0003.47
2022-12-15 15:10:00,,0820.9,5.05,0.00,22.2,20.7,00.0,31.1,24.0,07.8,0000.0,0013.76,0004.63,0003.48
2022-12-15 15:11:00,,0820.9,4.95,0.00,22.2,20.8,00.0,31.1,24.0,07.7,0000.0,0012.19,0004.38,0003.47
2022-12-15 15:12:00,,0821.0,5.05,0.00,22.3,21.5,00.0,31.1,24.2,07.7,0000.0,0011.33,0004.10,0003.45
2022-12-15 15:13:00,,0820.9,4.96,0.00,22.4,22.4,00.0,31.1,24.4,07.8,0000.0,0011.48,0004.02,0003.44
2022-12-15 15:14:00,,0821.0,5.03,0.00,22.4,22.3,00.0,31.1,24.4,07.9,0000.0,0011.34,0003.98,0003.45
2022-12-15 15:15:00,,0821.0,4.97,0.00,22.4,21.9,00.0,31.2,24.3,08.1,0000.0,0011.97,0004.01,0003.47
2022-12-15 15:16:00,,0821.0,5.01,0.00,22.4,21.6,00.0,31.2,24.3,08.0,0000.0,0012.20,0004.03,0003.48
2022-12-15 15:17:00,,0821.0,5.01,0.00,22.4,21.4,00.0,31.2,24.2,08.0,0000.0,0010.95,0004.06,0003.50
2022-12-15 15:18:00,,0821.0,4.97,0.00,22.4,21.2,00.0,31.2,24.2,08.0,0000.0,0009.63,0004.14,0003.53
2022-12-15 15:19:00,,0821.0,5.05,0.00,22.4,21.0,00.0,31.2,24.1,08.0,0000.0,0009.86,0004.20,0003.55
2022-12-15 15:20:00,,0821.0,4.95,0.00,22.3,20.9,00.0,31.2,24.1,08.0,0000.0,0010.27,0004.25,0003.56
2022-12-15 15:21:00,,0821.0,5.03,0.00,22.3,20.9,00.0,31.2,24.1,08.0,0000.0,0010.86,0004.27,0003.57
2022-12-15 15:22:00,,0821.1,4.97,0.00,22.3,20.8,00.0,31.2,24.1,08.0,0000.0,0010.92,0004.32,0003.60
2022-12-15 15:23:00,,0821.0,5.00,0.00,22.3,20.8,00.0,31.2,24.1,08.0,0000.0,0010.68,0004.34,0003.66
2022-12-15 15:24:00,,0821.0,5.03,0.00,22.3,20.8,00.0,31.2,24.0,08.0,0000.0,0010.28,0004.36,0003.69
2022-12-15 15:25:00,,0821.0,4.97,0.00,22.3,20.8,00.0,31.2,24.0,08.1,0000.0,0010.92,0004.43,0003.71
2022-12-15 15:26:00,,0821.0,5.05,0.00,22.3,20.8,00.0,31.1,24.0,08.0,0000.0,0010.46,0004.48,0003.71
2022-12-15 15:27:00,,0821.0,4.96,0.00,22.2,20.7,00.0,31.1,24.0,08.0,0000.0,0010.42,0004.48,0003.73
2022-12-15 15:28:00,,0821.0,5.05,0.00,22.2,20.6,00.0,31.1,24.0,08.0,0000.0,0010.38,0004.45,0003.72
2022-12-15 15:29:00,,0821.0,4.95,0.00,22.2,20.6,00.0,31.1,24.0,08.1,0000.0,0011.01,0004.39,0003.72
2022-12-15 15:30:00,,0821.0,5.01,0.00,22.2,21.3,00.0,31.1,24.1,08.1,0000.0,0011.14,0004.36,0003.73
2022-12-15 15:31:00,,0821.1,5.02,0.00,22.3,22.2,00.0,31.1,24.3,08.1,0000.0,0011.19,0004.33,0003.74
2022-12-15 15:32:00,,0821.1,4.97,0.00,22.4,22.3,00.0,31.1,24.4,08.0,0000.0,0010.97,0004.30,0003.74
2022-12-15 15:33:00,,0821.1,5.02,0.00,22.4,22.0,00.0,31.1,24.4,07.9,0000.0,0011.03,0004.29,0003.74
2022-12-15 15:34:00,,0821.0,5.01,0.00,22.4,21.7,00.0,31.2,24.3,07.9,0000.0,0011.67,0004.31,0003.73
2022-12-15 15:35:00,,0821.0,4.97,0.00,22.4,21.4,00.0,31.2,24.2,07.9,0000.0,0011.65,0004.34,0003.73
2022-12-15 15:36:00,,0821.0,5.00,0.00,22.4,21.2,00.0,31.2,24.2,08.0,0000.0,0011.26,0004.33,0003.73
2022-12-15 15:37:00,,0821.1,5.04,0.00,22.4,21.0,00.0,31.2,24.1,07.8,0000.0,0011.17,0004.27,0003.73
2022-12-15 15:38:00,,0821.1,4.95,0.00,22.3,20.7,00.0,31.2,24.0,07.8,0000.0,0012.09,0004.26,0003.73
2022-12-15 15:39:00,,0821.0,5.03,0.00,22.2,20.5,00.0,31.2,23.9,07.8,0000.0,0012.01,0004.26,0003.73
2022-12-15 15:40:00,,0821.0,4.97,0.00,22.2,20.4,00.0,31.2,23.9,07.9,0000.0,0011.20,0004.25,0003.73
2022-12-15 15:41:00,,0821.0,5.01,0.00,22.2,20.4,00.0,31.1,23.9,07.9,0000.0,0010.81,0004.23,0003.71
2022-12-15 15:42:00,,0821.0,5.01,0.00,22.2,20.4,00.0,31.1,23.9,08.0,0000.0,0010.43,0004.20,0003.69
2022-12-15 15:43:00,,0821.0,4.98,0.00,22.1,20.4,00.0,31.1,23.9,08.1,0000.0,0010.18,0004.19,0003.67
2022-12-15 15:44:00,,0821.0,5.04,0.00,22.1,20.2,00.0,31.1,23.8,08.1,0000.0,0010.21,0004.14,0003.65
2022-12-15 15:45:00,,0821.0,4.95,0.00,22.0,20.1,00.0,31.1,23.7,07.9,0000.0,0009.70,0004.13,0003.63
2022-12-15 15:46:00,,0821.1,5.05,0.00,22.0,19.9,00.0,31.0,23.6,08.0,0000.0,0017.74,0005.12,0003.69
2022-12-15 15:47:00,,0821.0,4.96,0.00,22.0,20.7,00.0,31.0,23.7,07.9,0000.0,0018.27,0005.19,0003.69
2022-12-15 15:48:00,,0821.0,5.02,0.00,22.1,21.7,00.0,30.9,23.9,07.9,0000.0,0018.68,0005.17,0003.69
2022-12-15 15:49:00,,0821.0,5.02,0.00,22.1,21.7,00.0,31.0,24.0,08.1,0000.0,0017.99,0005.19,0003.68
2022-12-15 15:50:00,,0820.9,4.96,0.00,22.1,21.2,00.0,31.0,23.9,08.0,0000.0,0018.18,0005.21,0003.69
2022-12-15 15:51:00,,0821.0,5.04,0.00,22.0,20.7,00.0,31.0,23.7,07.9,0000.0,0018.17,0005.22,0003.69
2022-12-15 15:52:00,,0821.0,4.95,0.00,22.0,20.2,00.0,31.0,23.5,07.9,0000.0,0018.08,0005.25,0003.71
2022-12-15 15:53:00,,0821.0,5.05,0.00,21.9,19.9,00.0,30.9,23.4,07.9,0000.0,0018.07,0005.29,0003.72
2022-12-15 15:54:00,,0821.0,4.96,0.00,21.8,19.6,00.0,30.9,23.3,07.9,0000.0,0017.91,0005.28,0003.75
2022-12-15 15:55:00,,0821.0,5.04,0.00,21.7,19.3,00.0,30.9,23.2,08.0,0000.0,0017.69,0005.30,0003.75
2022-12-15 15:56:00,,0821.0,4.98,0.00,21.6,19.2,00.0,30.8,23.1,07.9,0000.0,0017.46,0005.27,0003.75
2022-12-15 15:57:00,,0821.0,4.99,0.00,21.6,19.9,00.0,30.7,23.2,07.9,0000.0,0009.13,0004.21,0003.68
2022-12-15 15:58:00,,0821.0,5.01,0.00,21.7,21.3,00.0,30.7,23.5,07.9,0000.0,0009.08,0004.15,0003.67
2022-12-15 15:59:00,,0821.0,4.98,0.00,21.8,21.5,00.0,30.7,23.6,07.9,0000.0,0009.11,0004.17,0003.67
